Date,TemperatureHighF,TemperatureAvgF,TemperatureLowF,DewpointHighF,DewpointAvgF,DewpointLowF,HumidityHigh,HumidityAvg,HumidityLow,PressureMaxIn,PressureMinIn,WindSpeedMaxMPH,WindSpeedAvgMPH,GustSpeedMaxMPH,PrecipitationSumIn
2013-2-1,51.8,31.9,20.0,33.1,25.3,18.2,100,80,37,30.38,30.27,4,1,7,0.00
2013-2-2,48.0,31.3,18.0,32.4,25.5,15.8,94,81,51,30.40,30.27,4,1,8,0.00
2013-2-3,54.4,37.2,23.6,30.0,25.4,20.2,94,67,26,30.28,30.11,5,1,9,0.01
2013-2-4,51.8,39.6,31.1,26.8,24.7,19.4,79,58,29,30.12,29.86,4,1,7,0.00
2013-2-5,42.2,37.2,31.6,33.2,25.8,19.2,87,64,45,29.97,29.81,8,3,11,0.01
2013-2-6,44.4,36.2,30.0,27.5,25.4,22.4,84,66,42,30.04,29.82,5,2,10,0.00
2013-2-7,39.5,31.7,24.1,29.6,23.1,17.0,92,72,43,29.99,29.81,5,1,9,0.03
2013-2-8,38.0,28.4,17.8,24.6,19.8,13.7,93,73,40,30.14,29.99,5,1,11,0.00
2013-2-9,43.1,26.4,12.3,28.4,19.9,9.2,92,78,51,30.22,30.13,4,1,7,0.00
2013-2-10,43.3,30.3,21.4,28.4,22.0,18.5,94,74,42,30.26,30.18,5,1,10,0.01
2013-2-11,50.6,30.3,15.5,29.8,22.4,13.2,93,75,39,30.32,30.19,5,1,7,0.00
2013-2-12,48.7,33.9,23.0,32.7,27.2,21.3,97,79,47,30.39,30.31,5,1,9,0.01
2013-2-13,47.1,36.0,27.0,34.8,29.8,25.2,94,79,53,30.38,30.30,5,2,9,0.00
2013-2-14,52.3,34.6,22.4,34.4,28.5,20.4,96,81,49,30.49,30.38,4,1,8,0.00
2013-2-15,59.2,36.7,24.3,36.1,28.0,22.8,96,75,33,30.46,30.21,3,1,7,0.00
2013-2-16,50.6,35.0,26.1,32.8,26.5,21.8,94,73,40,30.24,30.06,10,2,13,0.01
2013-2-17,44.9,31.1,20.5,23.6,19.6,9.8,94,67,25,30.13,29.99,4,1,7,0.00
2013-2-18,40.7,31.2,24.4,23.3,20.3,14.9,85,66,37,29.99,29.68,5,2,10,0.00
2013-2-19,39.3,29.0,20.1,25.4,21.3,17.6,92,75,45,29.89,29.60,4,1,7,0.00
2013-2-20,40.0,27.7,15.5,25.7,20.2,13.0,93,75,48,30.02,29.90,8,2,13,0.00
2013-2-21,34.4,29.0,20.6,27.3,24.3,18.4,95,83,66,30.14,30.00,9,3,10,0.01
2013-2-22,44.2,32.6,26.5,32.6,28.4,23.6,95,85,59,30.15,29.81,12,4,22,0.09
2013-2-23,35.3,27.3,17.8,26.3,22.0,14.9,93,81,61,30.34,29.95,8,2,12,0.07
2013-2-24,45.0,27.9,12.9,31.1,21.2,10.4,93,78,54,30.41,30.10,4,1,8,0.01
2013-2-25,36.4,31.5,24.7,31.7,24.7,19.3,94,76,55,30.25,30.00,10,3,15,0.04
2013-2-26,45.5,31.0,19.0,23.4,19.4,15.2,91,66,32,30.34,30.21,4,1,10,0.00
2013-2-27,44.9,34.8,26.0,32.0,25.3,18.6,83,68,57,30.29,30.22,4,1,7,0.00
2013-2-28,51.0,41.3,35.5,42.6,37.1,30.2,94,85,72,30.40,30.19,5,2,7,0.04